Location: *
(17.3280°S, 114.7300°W)
Time: 07:38:42
(UTC+00:00)

Cosmos 1745 Rocket - Pass Details

Date: 05 August 2020
Orbit: 952 x 999 km, 83.0° (Epoch: 20 September)

Event Time Altitude Azimuth Distance (km) Brightness Sun altitude
Rises 12:26:24 0° 0° (N) 3,638 7.1 -23.1°
Reaches altitude 10° 12:28:54 10° 2° (N) 2,691 6.5 -22.6°
Maximum altitude 12:35:02 77° 87° (E) 987 4.1 -21.1°
Drops below altitude 10° 12:41:11 10° 172° (S) 2,694 6.3 -19.7°
Sets 12:43:41 0° 173° (S) 3,642 6.9 -19.1°
